Year,Month,Day,Hour,Minute,Value (Times are PST for insolation in W/m^2)
2019,11,16,00,00,0.00
2019,11,16,00,01,0.00
2019,11,16,00,02,0.00
2019,11,16,00,03,0.00
2019,11,16,00,04,0.00
2019,11,16,00,05,0.00
2019,11,16,00,06,0.00
2019,11,16,00,07,0.00
2019,11,16,00,08,0.00
2019,11,16,00,09,0.00
2019,11,16,00,10,0.00
2019,11,16,00,11,0.00
2019,11,16,00,12,0.00
2019,11,16,00,13,0.00
2019,11,16,00,14,0.00
2019,11,16,00,15,0.00
2019,11,16,00,16,0.00
2019,11,16,00,17,0.00
2019,11,16,00,18,0.00
2019,11,16,00,19,0.00
2019,11,16,00,20,0.00
2019,11,16,00,21,0.00
2019,11,16,00,22,0.00
2019,11,16,00,23,0.00
2019,11,16,00,24,0.00
2019,11,16,00,25,0.00
2019,11,16,00,26,0.00
2019,11,16,00,27,0.00
2019,11,16,00,28,0.00
2019,11,16,00,29,0.00
2019,11,16,00,30,0.00
2019,11,16,00,31,0.00
2019,11,16,00,32,0.00
2019,11,16,00,33,0.00
2019,11,16,00,34,0.00
2019,11,16,00,35,0.00
2019,11,16,00,36,0.00
2019,11,16,00,37,0.00
2019,11,16,00,38,0.00
2019,11,16,00,39,0.00
2019,11,16,00,40,0.00
2019,11,16,00,41,0.00
2019,11,16,00,42,0.00
2019,11,16,00,43,0.00
2019,11,16,00,44,0.00
2019,11,16,00,45,0.00
2019,11,16,00,46,0.00
2019,11,16,00,47,0.00
2019,11,16,00,48,0.00
2019,11,16,00,49,0.00
2019,11,16,00,50,0.00
2019,11,16,00,51,0.00
2019,11,16,00,52,0.00
2019,11,16,00,53,0.00
2019,11,16,00,54,0.00
2019,11,16,00,55,0.00
2019,11,16,00,56,0.00
2019,11,16,00,57,0.00
2019,11,16,00,58,0.00
2019,11,16,00,59,0.00
2019,11,16,01,00,0.00
2019,11,16,01,01,0.00
2019,11,16,01,02,0.00
2019,11,16,01,03,0.00
2019,11,16,01,04,0.00
2019,11,16,01,05,0.00
2019,11,16,01,06,0.00
2019,11,16,01,07,0.00
2019,11,16,01,08,0.00
2019,11,16,01,09,0.00
2019,11,16,01,10,0.00
2019,11,16,01,11,0.00
2019,11,16,01,12,0.00
2019,11,16,01,13,0.00
2019,11,16,01,14,0.00
2019,11,16,01,15,0.00
2019,11,16,01,16,0.00
2019,11,16,01,17,0.00
2019,11,16,01,18,0.00
2019,11,16,01,19,0.00
2019,11,16,01,20,0.00
2019,11,16,01,21,0.00
2019,11,16,01,22,0.00
2019,11,16,01,23,0.00
2019,11,16,01,24,0.00
2019,11,16,01,25,0.00
2019,11,16,01,26,0.00
2019,11,16,01,27,0.00
2019,11,16,01,28,0.00
2019,11,16,01,29,0.00
2019,11,16,01,30,0.00
2019,11,16,01,31,0.00
2019,11,16,01,32,0.00
2019,11,16,01,33,0.00
2019,11,16,01,34,0.00
2019,11,16,01,35,0.00
2019,11,16,01,36,0.00
2019,11,16,01,37,0.00
2019,11,16,01,38,0.00
2019,11,16,01,39,0.00
2019,11,16,01,40,0.00
2019,11,16,01,41,0.00
2019,11,16,01,42,0.00
2019,11,16,01,43,0.00
2019,11,16,01,44,0.00
2019,11,16,01,45,0.00
2019,11,16,01,46,0.00
2019,11,16,01,47,0.00
2019,11,16,01,48,0.00
2019,11,16,01,49,0.00
2019,11,16,01,50,0.00
2019,11,16,01,51,0.00
2019,11,16,01,52,0.00
2019,11,16,01,53,0.00
2019,11,16,01,54,0.00
2019,11,16,01,55,0.00
2019,11,16,01,56,0.00
2019,11,16,01,57,0.00
2019,11,16,01,58,0.00
2019,11,16,01,59,0.00
2019,11,16,02,00,0.00
2019,11,16,02,01,0.00
2019,11,16,02,02,0.00
2019,11,16,02,03,0.00
2019,11,16,02,04,0.00
2019,11,16,02,05,0.00
2019,11,16,02,06,0.00
2019,11,16,02,07,0.00
2019,11,16,02,08,0.00
2019,11,16,02,09,0.00
2019,11,16,02,10,0.00
2019,11,16,02,11,0.00
2019,11,16,02,12,0.00
2019,11,16,02,13,0.00
2019,11,16,02,14,0.00
2019,11,16,02,15,0.00
2019,11,16,02,16,0.00
2019,11,16,02,17,0.00
2019,11,16,02,18,0.00
2019,11,16,02,19,0.00
2019,11,16,02,20,0.00
2019,11,16,02,21,0.00
2019,11,16,02,22,0.00
2019,11,16,02,23,0.00
2019,11,16,02,24,0.00
2019,11,16,02,25,0.00
2019,11,16,02,26,0.00
2019,11,16,02,27,0.00
2019,11,16,02,28,0.00
2019,11,16,02,29,0.00
2019,11,16,02,30,0.00
2019,11,16,02,31,0.00
2019,11,16,02,32,0.00
2019,11,16,02,33,0.00
2019,11,16,02,34,0.00
2019,11,16,02,35,0.00
2019,11,16,02,36,0.00
2019,11,16,02,37,0.00
2019,11,16,02,38,0.00
2019,11,16,02,39,0.00
2019,11,16,02,40,0.00
2019,11,16,02,41,0.00
2019,11,16,02,42,0.00
2019,11,16,02,43,0.00
2019,11,16,02,44,0.00
2019,11,16,02,45,0.00
2019,11,16,02,46,0.00
2019,11,16,02,47,0.00
2019,11,16,02,48,0.00
2019,11,16,02,49,0.00
2019,11,16,02,50,0.00
2019,11,16,02,51,0.00
2019,11,16,02,52,0.00
2019,11,16,02,53,0.00
2019,11,16,02,54,0.00
2019,11,16,02,55,0.00
2019,11,16,02,56,0.00
2019,11,16,02,57,0.00
2019,11,16,02,58,0.00
2019,11,16,02,59,0.00
2019,11,16,03,00,0.00
2019,11,16,03,01,0.00
2019,11,16,03,02,0.00
2019,11,16,03,03,0.00
2019,11,16,03,04,0.00
2019,11,16,03,05,0.00
2019,11,16,03,06,0.00
2019,11,16,03,07,0.00
2019,11,16,03,08,0.00
2019,11,16,03,09,0.00
2019,11,16,03,10,0.00
2019,11,16,03,11,0.00
2019,11,16,03,12,0.00
2019,11,16,03,13,0.00
2019,11,16,03,14,0.00
2019,11,16,03,15,0.00
2019,11,16,03,16,0.00
2019,11,16,03,17,0.00
2019,11,16,03,18,0.00
2019,11,16,03,19,0.00
2019,11,16,03,20,0.00
2019,11,16,03,21,0.00
2019,11,16,03,22,0.00
2019,11,16,03,23,0.00
2019,11,16,03,24,0.00
2019,11,16,03,25,0.00
2019,11,16,03,26,0.00
2019,11,16,03,27,0.00
2019,11,16,03,28,0.00
2019,11,16,03,29,0.00
2019,11,16,03,30,0.00
2019,11,16,03,31,0.00
2019,11,16,03,32,0.00
2019,11,16,03,33,0.00
2019,11,16,03,34,0.00
2019,11,16,03,35,0.00
2019,11,16,03,36,0.00
2019,11,16,03,37,0.00
2019,11,16,03,38,0.00
2019,11,16,03,39,0.00
2019,11,16,03,40,0.00
2019,11,16,03,41,0.00
2019,11,16,03,42,0.00
2019,11,16,03,43,0.00
2019,11,16,03,44,0.00
2019,11,16,03,45,0.00
2019,11,16,03,46,0.00
2019,11,16,03,47,0.00
2019,11,16,03,48,0.00
2019,11,16,03,49,0.00
2019,11,16,03,50,0.00
2019,11,16,03,51,0.00
2019,11,16,03,52,0.00
2019,11,16,03,53,0.00
2019,11,16,03,54,0.00
2019,11,16,03,55,0.00
2019,11,16,03,56,0.00
2019,11,16,03,57,0.00
2019,11,16,03,58,0.00
2019,11,16,03,59,0.00
2019,11,16,04,00,0.00
2019,11,16,04,01,0.00
2019,11,16,04,02,0.00
2019,11,16,04,03,0.00
2019,11,16,04,04,0.00
2019,11,16,04,05,0.00
2019,11,16,04,06,0.00
2019,11,16,04,07,0.00
2019,11,16,04,08,0.00
2019,11,16,04,09,0.00
2019,11,16,04,10,0.00
2019,11,16,04,11,0.00
2019,11,16,04,12,0.00
2019,11,16,04,13,0.00
2019,11,16,04,14,0.00
2019,11,16,04,15,0.00
2019,11,16,04,16,0.00
2019,11,16,04,17,0.00
2019,11,16,04,18,0.00
2019,11,16,04,19,0.00
2019,11,16,04,20,0.00
2019,11,16,04,21,0.00
2019,11,16,04,22,0.00
2019,11,16,04,23,0.00
2019,11,16,04,24,0.00
2019,11,16,04,25,0.00
2019,11,16,04,26,0.00
2019,11,16,04,27,0.00
2019,11,16,04,28,0.00
2019,11,16,04,29,0.00
2019,11,16,04,30,0.00
2019,11,16,04,31,0.00
2019,11,16,04,32,0.00
2019,11,16,04,33,0.00
2019,11,16,04,34,0.00
2019,11,16,04,35,0.00
2019,11,16,04,36,0.00
2019,11,16,04,37,0.00
2019,11,16,04,38,0.00
2019,11,16,04,39,0.00
2019,11,16,04,40,0.00
2019,11,16,04,41,0.00
2019,11,16,04,42,0.00
2019,11,16,04,43,0.00
2019,11,16,04,44,0.00
2019,11,16,04,45,0.00
2019,11,16,04,46,0.00
2019,11,16,04,47,0.00
2019,11,16,04,48,0.00
2019,11,16,04,49,0.00
2019,11,16,04,50,0.00
2019,11,16,04,51,0.00
2019,11,16,04,52,0.00
2019,11,16,04,53,0.00
2019,11,16,04,54,0.00
2019,11,16,04,55,0.00
2019,11,16,04,56,0.00
2019,11,16,04,57,0.00
2019,11,16,04,58,0.00
2019,11,16,04,59,0.00
2019,11,16,05,00,0.00
2019,11,16,05,01,0.00
2019,11,16,05,02,0.00
2019,11,16,05,03,0.00
2019,11,16,05,04,0.00
2019,11,16,05,05,0.00
2019,11,16,05,06,0.00
2019,11,16,05,07,0.00
2019,11,16,05,08,0.00
2019,11,16,05,09,0.00
2019,11,16,05,10,0.00
2019,11,16,05,11,0.00
2019,11,16,05,12,0.00
2019,11,16,05,13,0.00
2019,11,16,05,14,0.00
2019,11,16,05,15,0.00
2019,11,16,05,16,0.00
2019,11,16,05,17,0.00
2019,11,16,05,18,0.00
2019,11,16,05,19,0.00
2019,11,16,05,20,0.00
2019,11,16,05,21,0.00
2019,11,16,05,22,0.00
2019,11,16,05,23,0.00
2019,11,16,05,24,0.00
2019,11,16,05,25,0.00
2019,11,16,05,26,0.00
2019,11,16,05,27,0.00
2019,11,16,05,28,0.00
2019,11,16,05,29,0.00
2019,11,16,05,30,0.00
2019,11,16,05,31,0.00
2019,11,16,05,32,0.00
2019,11,16,05,33,0.00
2019,11,16,05,34,0.00
2019,11,16,05,35,0.00
2019,11,16,05,36,0.00
2019,11,16,05,37,0.00
2019,11,16,05,38,0.00
2019,11,16,05,39,0.00
2019,11,16,05,40,0.00
2019,11,16,05,41,0.00
2019,11,16,05,42,0.00
2019,11,16,05,43,0.00
2019,11,16,05,44,0.00
2019,11,16,05,45,0.00
2019,11,16,05,46,0.00
2019,11,16,05,47,0.00
2019,11,16,05,48,0.00
2019,11,16,05,49,0.00
2019,11,16,05,50,0.00
2019,11,16,05,51,0.00
2019,11,16,05,52,0.00
2019,11,16,05,53,0.00
2019,11,16,05,54,0.00
2019,11,16,05,55,0.00
2019,11,16,05,56,0.00
2019,11,16,05,57,0.00
2019,11,16,05,58,0.00
2019,11,16,05,59,0.00
2019,11,16,06,00,0.00
2019,11,16,06,01,0.00
2019,11,16,06,02,0.00
2019,11,16,06,03,0.00
2019,11,16,06,04,0.00
2019,11,16,06,05,0.00
2019,11,16,06,06,0.00
2019,11,16,06,07,0.00
2019,11,16,06,08,0.00
2019,11,16,06,09,0.00
2019,11,16,06,10,0.00
2019,11,16,06,11,0.00
2019,11,16,06,12,0.00
2019,11,16,06,13,0.00
2019,11,16,06,14,0.00
2019,11,16,06,15,0.00
2019,11,16,06,16,0.00
2019,11,16,06,17,0.00
2019,11,16,06,18,0.00
2019,11,16,06,19,0.00
2019,11,16,06,20,0.00
2019,11,16,06,21,0.00
2019,11,16,06,22,0.00
2019,11,16,06,23,0.00
2019,11,16,06,24,0.00
2019,11,16,06,25,0.00
2019,11,16,06,26,0.00
2019,11,16,06,27,0.00
2019,11,16,06,28,0.00
2019,11,16,06,29,0.00
2019,11,16,06,30,0.00
2019,11,16,06,31,0.00
2019,11,16,06,32,0.00
2019,11,16,06,33,0.00
2019,11,16,06,34,0.00
2019,11,16,06,35,0.00
2019,11,16,06,36,0.00
2019,11,16,06,37,0.00
2019,11,16,06,38,0.00
2019,11,16,06,39,0.00
2019,11,16,06,40,0.00
2019,11,16,06,41,0.00
2019,11,16,06,42,0.00
2019,11,16,06,43,0.00
2019,11,16,06,44,0.00
2019,11,16,06,45,0.00
2019,11,16,06,46,0.00
2019,11,16,06,47,0.00
2019,11,16,06,48,0.00
2019,11,16,06,49,0.00
2019,11,16,06,50,0.00
2019,11,16,06,51,0.00
2019,11,16,06,52,0.00
2019,11,16,06,53,0.00
2019,11,16,06,54,0.00
2019,11,16,06,55,0.00
2019,11,16,06,56,0.00
2019,11,16,06,57,0.00
2019,11,16,06,58,0.00
2019,11,16,06,59,0.00
2019,11,16,07,00,0.00
2019,11,16,07,01,0.00
2019,11,16,07,02,0.00
2019,11,16,07,03,0.00
2019,11,16,07,04,0.00
2019,11,16,07,05,0.00
2019,11,16,07,06,0.00
2019,11,16,07,07,0.00
2019,11,16,07,08,0.00
2019,11,16,07,09,0.00
2019,11,16,07,10,0.00
2019,11,16,07,11,0.00
2019,11,16,07,12,0.00
2019,11,16,07,13,0.00
2019,11,16,07,14,0.00
2019,11,16,07,15,0.00
2019,11,16,07,16,0.00
2019,11,16,07,17,0.00
2019,11,16,07,18,0.00
2019,11,16,07,19,0.00
2019,11,16,07,20,0.00
2019,11,16,07,21,0.00
2019,11,16,07,22,0.00
2019,11,16,07,23,0.00
2019,11,16,07,24,0.00
2019,11,16,07,25,0.00
2019,11,16,07,26,0.00
2019,11,16,07,27,0.00
2019,11,16,07,28,0.00
2019,11,16,07,29,0.00
2019,11,16,07,30,0.00
2019,11,16,07,31,0.00
2019,11,16,07,32,0.00
2019,11,16,07,33,0.00
2019,11,16,07,34,0.00
2019,11,16,07,35,0.00
2019,11,16,07,36,0.00
2019,11,16,07,37,0.00
2019,11,16,07,38,0.00
2019,11,16,07,39,0.00
2019,11,16,07,40,0.00
2019,11,16,07,41,0.00
2019,11,16,07,42,0.00
2019,11,16,07,43,0.00
2019,11,16,07,44,0.00
2019,11,16,07,45,0.00
2019,11,16,07,46,0.00
2019,11,16,07,47,0.00
2019,11,16,07,48,0.00
2019,11,16,07,49,0.00
2019,11,16,07,50,0.00
2019,11,16,07,51,0.00
2019,11,16,07,52,0.00
2019,11,16,07,53,0.00
2019,11,16,07,54,0.00
2019,11,16,07,55,0.00
2019,11,16,07,56,0.00
2019,11,16,07,57,4.50
2019,11,16,07,58,5.00
2019,11,16,07,59,5.00
2019,11,16,08,00,5.00
2019,11,16,08,01,5.00
2019,11,16,08,02,5.00
2019,11,16,08,03,5.00
2019,11,16,08,04,5.20
2019,11,16,08,05,9.30
2019,11,16,08,06,11.30
2019,11,16,08,07,12.00
2019,11,16,08,08,12.00
2019,11,16,08,09,12.00
2019,11,16,08,10,13.60
2019,11,16,08,11,14.00
2019,11,16,08,12,14.00
2019,11,16,08,13,14.00
2019,11,16,08,14,14.00
2019,11,16,08,15,15.10
2019,11,16,08,16,16.00
2019,11,16,08,17,16.00
2019,11,16,08,18,16.00
2019,11,16,08,19,19.30
2019,11,16,08,20,21.00
2019,11,16,08,21,21.00
2019,11,16,08,22,19.90
2019,11,16,08,23,19.00
2019,11,16,08,24,19.00
2019,11,16,08,25,22.60
2019,11,16,08,26,23.00
2019,11,16,08,27,22.40
2019,11,16,08,28,21.00
2019,11,16,08,29,21.00
2019,11,16,08,30,21.00
2019,11,16,08,31,22.50
2019,11,16,08,32,24.80
2019,11,16,08,33,25.00
2019,11,16,08,34,25.00
2019,11,16,08,35,25.00
2019,11,16,08,36,23.90
2019,11,16,08,37,23.00
2019,11,16,08,38,23.00
2019,11,16,08,39,23.00
2019,11,16,08,40,23.00
2019,11,16,08,41,23.00
2019,11,16,08,42,25.90
2019,11,16,08,43,31.50
2019,11,16,08,44,32.30
2019,11,16,08,45,30.40
2019,11,16,08,46,30.00
2019,11,16,08,47,30.00
2019,11,16,08,48,30.00
2019,11,16,08,49,30.80
2019,11,16,08,50,32.00
2019,11,16,08,51,29.20
2019,11,16,08,52,28.00
2019,11,16,08,53,28.00
2019,11,16,08,54,27.70
2019,11,16,08,55,26.00
2019,11,16,08,56,25.60
2019,11,16,08,57,25.50
2019,11,16,08,58,27.40
2019,11,16,08,59,28.00
2019,11,16,09,00,27.90
2019,11,16,09,01,25.00
2019,11,16,09,02,25.00
2019,11,16,09,03,22.80
2019,11,16,09,04,20.00
2019,11,16,09,05,21.00
2019,11,16,09,06,21.00
2019,11,16,09,07,21.00
2019,11,16,09,08,21.00
2019,11,16,09,09,21.00
2019,11,16,09,10,21.00
2019,11,16,09,11,21.00
2019,11,16,09,12,19.60
2019,11,16,09,13,19.00
2019,11,16,09,14,19.00
2019,11,16,09,15,20.00
2019,11,16,09,16,25.20
2019,11,16,09,17,21.40
2019,11,16,09,18,19.00
2019,11,16,09,19,19.00
2019,11,16,09,20,20.60
2019,11,16,09,21,22.90
2019,11,16,09,22,25.00
2019,11,16,09,23,25.30
2019,11,16,09,24,26.00
2019,11,16,09,25,26.00
2019,11,16,09,26,30.50
2019,11,16,09,27,33.00
2019,11,16,09,28,33.00
2019,11,16,09,29,32.00
2019,11,16,09,30,29.60
2019,11,16,09,31,23.00
2019,11,16,09,32,23.00
2019,11,16,09,33,23.00
2019,11,16,09,34,23.00
2019,11,16,09,35,25.10
2019,11,16,09,36,28.00
2019,11,16,09,37,28.00
2019,11,16,09,38,28.00
2019,11,16,09,39,34.00
2019,11,16,09,40,42.60
2019,11,16,09,41,45.60
2019,11,16,09,42,46.90
2019,11,16,09,43,47.00
2019,11,16,09,44,45.50
2019,11,16,09,45,41.20
2019,11,16,09,46,40.00
2019,11,16,09,47,40.00
2019,11,16,09,48,47.20
2019,11,16,09,49,50.80
2019,11,16,09,50,56.80
2019,11,16,09,51,60.00
2019,11,16,09,52,60.00
2019,11,16,09,53,58.90
2019,11,16,09,54,58.00
2019,11,16,09,55,58.00
2019,11,16,09,56,57.50
2019,11,16,09,57,49.30
2019,11,16,09,58,51.00
2019,11,16,09,59,52.20
2019,11,16,10,00,58.40
2019,11,16,10,01,66.60
2019,11,16,10,02,65.80
2019,11,16,10,03,60.50
2019,11,16,10,04,60.00
2019,11,16,10,05,55.50
2019,11,16,10,06,42.00
2019,11,16,10,07,43.10
2019,11,16,10,08,45.40
2019,11,16,10,09,46.80
2019,11,16,10,10,47.10
2019,11,16,10,11,49.30
2019,11,16,10,12,51.00
2019,11,16,10,13,51.00
2019,11,16,10,14,49.90
2019,11,16,10,15,50.30
2019,11,16,10,16,51.00
2019,11,16,10,17,51.00
2019,11,16,10,18,51.00
2019,11,16,10,19,51.80
2019,11,16,10,20,54.70
2019,11,16,10,21,56.00
2019,11,16,10,22,56.00
2019,11,16,10,23,56.00
2019,11,16,10,24,44.70
2019,11,16,10,25,45.40
2019,11,16,10,26,42.00
2019,11,16,10,27,42.00
2019,11,16,10,28,44.80
2019,11,16,10,29,51.90
2019,11,16,10,30,54.00
2019,11,16,10,31,54.00
2019,11,16,10,32,59.70
2019,11,16,10,33,89.40
2019,11,16,10,34,89.20
2019,11,16,10,35,92.10
2019,11,16,10,36,94.30
2019,11,16,10,37,95.00
2019,11,16,10,38,84.80
2019,11,16,10,39,77.00
2019,11,16,10,40,77.00
2019,11,16,10,41,77.00
2019,11,16,10,42,79.20
2019,11,16,10,43,81.00
2019,11,16,10,44,81.00
2019,11,16,10,45,98.00
2019,11,16,10,46,100.60
2019,11,16,10,47,104.80
2019,11,16,10,48,107.80
2019,11,16,10,49,108.00
2019,11,16,10,50,107.00
2019,11,16,10,51,107.00
2019,11,16,10,52,102.50
2019,11,16,10,53,98.30
2019,11,16,10,54,100.00
2019,11,16,10,55,102.10
2019,11,16,10,56,105.00
2019,11,16,10,57,105.00
2019,11,16,10,58,108.00
2019,11,16,10,59,112.60
2019,11,16,11,00,114.00
2019,11,16,11,01,114.00
2019,11,16,11,02,114.00
2019,11,16,11,03,109.30
2019,11,16,11,04,105.00
2019,11,16,11,05,97.00
2019,11,16,11,06,95.00
2019,11,16,11,07,95.00
2019,11,16,11,08,92.60
2019,11,16,11,09,84.80
2019,11,16,11,10,81.90
2019,11,16,11,11,79.70
2019,11,16,11,12,76.60
2019,11,16,11,13,76.00
2019,11,16,11,14,71.70
2019,11,16,11,15,70.00
2019,11,16,11,16,70.00
2019,11,16,11,17,67.40
2019,11,16,11,18,65.00
2019,11,16,11,19,65.00
2019,11,16,11,20,63.20
2019,11,16,11,21,62.00
2019,11,16,11,22,60.40
2019,11,16,11,23,56.00
2019,11,16,11,24,56.00
2019,11,16,11,25,56.00
2019,11,16,11,26,54.40
2019,11,16,11,27,55.80
2019,11,16,11,28,56.40
2019,11,16,11,29,58.60
2019,11,16,11,30,60.00
2019,11,16,11,31,61.70
2019,11,16,11,32,63.00
2019,11,16,11,33,63.00
2019,11,16,11,34,64.90
2019,11,16,11,35,67.40
2019,11,16,11,36,71.20
2019,11,16,11,37,74.80
2019,11,16,11,38,77.60
2019,11,16,11,39,79.00
2019,11,16,11,40,82.90
2019,11,16,11,41,85.80
2019,11,16,11,42,85.60
2019,11,16,11,43,83.70
2019,11,16,11,44,83.00
2019,11,16,11,45,83.00
2019,11,16,11,46,83.00
2019,11,16,11,47,83.00
2019,11,16,11,48,85.70
2019,11,16,11,49,90.40
2019,11,16,11,50,93.00
2019,11,16,11,51,93.00
2019,11,16,11,52,93.00
2019,11,16,11,53,104.70
2019,11,16,11,54,118.20
2019,11,16,11,55,128.90
2019,11,16,11,56,143.40
2019,11,16,11,57,154.10
2019,11,16,11,58,165.70
2019,11,16,11,59,174.90
2019,11,16,12,00,178.00
2019,11,16,12,01,178.00
2019,11,16,12,02,181.10
2019,11,16,12,03,192.00
2019,11,16,12,04,206.30
2019,11,16,12,05,254.70
2019,11,16,12,06,301.00
2019,11,16,12,07,262.00
2019,11,16,12,08,237.10
2019,11,16,12,09,236.00
2019,11,16,12,10,230.50
2019,11,16,12,11,203.10
2019,11,16,12,12,192.00
2019,11,16,12,13,192.00
2019,11,16,12,14,192.00
2019,11,16,12,15,192.00
2019,11,16,12,16,152.60
2019,11,16,12,17,151.00
2019,11,16,12,18,149.80
2019,11,16,12,19,142.40
2019,11,16,12,20,138.10
2019,11,16,12,21,139.00
2019,11,16,12,22,137.40
2019,11,16,12,23,135.20
2019,11,16,12,24,134.60
2019,11,16,12,25,132.90
2019,11,16,12,26,135.00
2019,11,16,12,27,139.70
2019,11,16,12,28,139.20
2019,11,16,12,29,131.40
2019,11,16,12,30,130.00
2019,11,16,12,31,130.00
2019,11,16,12,32,130.50
2019,11,16,12,33,131.20
2019,11,16,12,34,127.40
2019,11,16,12,35,125.00
2019,11,16,12,36,125.00
2019,11,16,12,37,124.40
2019,11,16,12,38,114.00
2019,11,16,12,39,115.20
2019,11,16,12,40,120.00
2019,11,16,12,41,130.70
2019,11,16,12,42,145.20
2019,11,16,12,43,157.20
2019,11,16,12,44,160.00
2019,11,16,12,45,160.00
2019,11,16,12,46,180.20
2019,11,16,12,47,228.20
2019,11,16,12,48,212.90
2019,11,16,12,49,194.80
2019,11,16,12,50,167.40
2019,11,16,12,51,154.80
2019,11,16,12,52,167.60
2019,11,16,12,53,160.00
2019,11,16,12,54,160.00
2019,11,16,12,55,144.20
2019,11,16,12,56,131.30
2019,11,16,12,57,132.00
2019,11,16,12,58,141.50
2019,11,16,12,59,141.90
2019,11,16,13,00,143.10
2019,11,16,13,01,153.90
2019,11,16,13,02,162.00
2019,11,16,13,03,174.00
2019,11,16,13,04,203.50
2019,11,16,13,05,180.90
2019,11,16,13,06,168.40
2019,11,16,13,07,165.00
2019,11,16,13,08,162.10
2019,11,16,13,09,159.10
2019,11,16,13,10,160.00
2019,11,16,13,11,160.00
2019,11,16,13,12,178.20
2019,11,16,13,13,209.20
2019,11,16,13,14,174.00
2019,11,16,13,15,174.00
2019,11,16,13,16,174.00
2019,11,16,13,17,137.60
2019,11,16,13,18,118.00
2019,11,16,13,19,116.20
2019,11,16,13,20,116.00
2019,11,16,13,21,116.00
2019,11,16,13,22,120.80
2019,11,16,13,23,127.50
2019,11,16,13,24,125.70
2019,11,16,13,25,123.40
2019,11,16,13,26,118.30
2019,11,16,13,27,114.00
2019,11,16,13,28,114.00
2019,11,16,13,29,114.00
2019,11,16,13,30,114.00
2019,11,16,13,31,114.00
2019,11,16,13,32,111.70
2019,11,16,13,33,108.90
2019,11,16,13,34,104.80
2019,11,16,13,35,104.00
2019,11,16,13,36,98.50
2019,11,16,13,37,87.00
2019,11,16,13,38,83.00
2019,11,16,13,39,74.20
2019,11,16,13,40,71.90
2019,11,16,13,41,70.00
2019,11,16,13,42,71.10
2019,11,16,13,43,74.00
2019,11,16,13,44,74.00
2019,11,16,13,45,66.20
2019,11,16,13,46,57.40
2019,11,16,13,47,56.00
2019,11,16,13,48,57.00
2019,11,16,13,49,66.90
2019,11,16,13,50,82.30
2019,11,16,13,51,97.10
2019,11,16,13,52,103.40
2019,11,16,13,53,104.00
2019,11,16,13,54,102.20
2019,11,16,13,55,104.00
2019,11,16,13,56,104.00
2019,11,16,13,57,102.30
2019,11,16,13,58,100.00
2019,11,16,13,59,100.00
2019,11,16,14,00,100.00
2019,11,16,14,01,100.00
2019,11,16,14,02,121.00
2019,11,16,14,03,127.30
2019,11,16,14,04,145.00
2019,11,16,14,05,152.10
2019,11,16,14,06,153.00
2019,11,16,14,07,136.20
2019,11,16,14,08,120.20
2019,11,16,14,09,109.10
2019,11,16,14,10,96.50
2019,11,16,14,11,91.70
2019,11,16,14,12,87.90
2019,11,16,14,13,86.00
2019,11,16,14,14,86.00
2019,11,16,14,15,86.00
2019,11,16,14,16,104.00
2019,11,16,14,17,102.80
2019,11,16,14,18,97.20
2019,11,16,14,19,91.90
2019,11,16,14,20,93.60
2019,11,16,14,21,96.60
2019,11,16,14,22,97.90
2019,11,16,14,23,100.20
2019,11,16,14,24,109.00
2019,11,16,14,25,107.30
2019,11,16,14,26,105.00
2019,11,16,14,27,104.30
2019,11,16,14,28,104.00
2019,11,16,14,29,98.40
2019,11,16,14,30,93.90
2019,11,16,14,31,88.00
2019,11,16,14,32,79.40
2019,11,16,14,33,69.00
2019,11,16,14,34,60.10
2019,11,16,14,35,52.20
2019,11,16,14,36,46.30
2019,11,16,14,37,46.00
2019,11,16,14,38,44.20
2019,11,16,14,39,39.60
2019,11,16,14,40,39.00
2019,11,16,14,41,39.70
2019,11,16,14,42,39.20
2019,11,16,14,43,39.90
2019,11,16,14,44,40.00
2019,11,16,14,45,40.00
2019,11,16,14,46,48.00
2019,11,16,14,47,60.00
2019,11,16,14,48,54.00
2019,11,16,14,49,51.00
2019,11,16,14,50,51.00
2019,11,16,14,51,49.60
2019,11,16,14,52,40.60
2019,11,16,14,53,35.30
2019,11,16,14,54,31.50
2019,11,16,14,55,28.70
2019,11,16,14,56,28.00
2019,11,16,14,57,26.20
2019,11,16,14,58,26.00
2019,11,16,14,59,26.00
2019,11,16,15,00,22.40
2019,11,16,15,01,18.00
2019,11,16,15,02,18.00
2019,11,16,15,03,20.40
2019,11,16,15,04,22.80
2019,11,16,15,05,23.50
2019,11,16,15,06,26.60
2019,11,16,15,07,28.00
2019,11,16,15,08,28.00
2019,11,16,15,09,30.80
2019,11,16,15,10,30.40
2019,11,16,15,11,30.00
2019,11,16,15,12,29.60
2019,11,16,15,13,28.00
2019,11,16,15,14,27.20
2019,11,16,15,15,25.50
2019,11,16,15,16,25.00
2019,11,16,15,17,25.80
2019,11,16,15,18,27.80
2019,11,16,15,19,28.40
2019,11,16,15,20,30.00
2019,11,16,15,21,30.00
2019,11,16,15,22,30.00
2019,11,16,15,23,30.00
2019,11,16,15,24,28.40
2019,11,16,15,25,28.10
2019,11,16,15,26,30.40
2019,11,16,15,27,32.00
2019,11,16,15,28,32.00
2019,11,16,15,29,32.00
2019,11,16,15,30,32.00
2019,11,16,15,31,38.40
2019,11,16,15,32,42.00
2019,11,16,15,33,44.00
2019,11,16,15,34,44.00
2019,11,16,15,35,44.00
2019,11,16,15,36,41.80
2019,11,16,15,37,39.30
2019,11,16,15,38,39.00
2019,11,16,15,39,37.00
2019,11,16,15,40,35.00
2019,11,16,15,41,33.50
2019,11,16,15,42,29.20
2019,11,16,15,43,28.00
2019,11,16,15,44,28.00
2019,11,16,15,45,20.90
2019,11,16,15,46,16.20
2019,11,16,15,47,14.00
2019,11,16,15,48,14.00
2019,11,16,15,49,14.00
2019,11,16,15,50,13.00
2019,11,16,15,51,12.00
2019,11,16,15,52,12.00
2019,11,16,15,53,12.00
2019,11,16,15,54,12.40
2019,11,16,15,55,14.00
2019,11,16,15,56,14.00
2019,11,16,15,57,14.00
2019,11,16,15,58,14.00
2019,11,16,15,59,12.40
2019,11,16,16,00,12.00
2019,11,16,16,01,11.90
2019,11,16,16,02,10.40
2019,11,16,16,03,9.00
2019,11,16,16,04,7.90
2019,11,16,16,05,7.00
2019,11,16,16,06,7.00
2019,11,16,16,07,5.10
2019,11,16,16,08,5.00
2019,11,16,16,09,5.00
2019,11,16,16,10,5.00
2019,11,16,16,11,5.00
2019,11,16,16,12,5.00
2019,11,16,16,13,5.00
2019,11,16,16,14,5.00
2019,11,16,16,15,5.30
2019,11,16,16,16,7.00
2019,11,16,16,17,7.00
2019,11,16,16,18,7.00
2019,11,16,16,19,7.00
2019,11,16,16,20,7.00
2019,11,16,16,21,5.20
2019,11,16,16,22,4.20
2019,11,16,16,23,0.00
2019,11,16,16,24,0.00
2019,11,16,16,25,0.00
2019,11,16,16,26,0.00
2019,11,16,16,27,0.00
2019,11,16,16,28,0.00
2019,11,16,16,29,0.00
2019,11,16,16,30,0.00
2019,11,16,16,31,0.00
2019,11,16,16,32,0.00
2019,11,16,16,33,0.00
2019,11,16,16,34,0.00
2019,11,16,16,35,0.00
2019,11,16,16,36,0.00
2019,11,16,16,37,0.00
2019,11,16,16,38,0.00
2019,11,16,16,39,0.00
2019,11,16,16,40,0.00
2019,11,16,16,41,0.00
2019,11,16,16,42,0.00
2019,11,16,16,43,0.00
2019,11,16,16,44,0.00
2019,11,16,16,45,0.00
2019,11,16,16,46,0.00
2019,11,16,16,47,0.00
2019,11,16,16,48,0.00
2019,11,16,16,49,0.00
2019,11,16,16,50,0.00
2019,11,16,16,51,0.00
2019,11,16,16,52,0.00
2019,11,16,16,53,0.00
2019,11,16,16,54,0.00
2019,11,16,16,55,0.00
2019,11,16,16,56,0.00
2019,11,16,16,57,0.00
2019,11,16,16,58,0.00
2019,11,16,16,59,0.00
2019,11,16,17,00,0.00
2019,11,16,17,01,0.00
2019,11,16,17,02,0.00
2019,11,16,17,03,0.00
2019,11,16,17,04,0.00
2019,11,16,17,05,0.00
2019,11,16,17,06,0.00
2019,11,16,17,07,0.00
2019,11,16,17,08,0.00
2019,11,16,17,09,0.00
2019,11,16,17,10,0.00
2019,11,16,17,11,0.00
2019,11,16,17,12,0.00
2019,11,16,17,13,0.00
2019,11,16,17,14,0.00
2019,11,16,17,15,0.00
2019,11,16,17,16,0.00
2019,11,16,17,17,0.00
2019,11,16,17,18,0.00
2019,11,16,17,19,0.00
2019,11,16,17,20,0.00
2019,11,16,17,21,0.00
2019,11,16,17,22,0.00
2019,11,16,17,23,0.00
2019,11,16,17,24,0.00
2019,11,16,17,25,0.00
2019,11,16,17,26,0.00
2019,11,16,17,27,0.00
2019,11,16,17,28,0.00
2019,11,16,17,29,0.00
2019,11,16,17,30,0.00
2019,11,16,17,31,0.00
2019,11,16,17,32,0.00
2019,11,16,17,33,0.00
2019,11,16,17,34,0.00
2019,11,16,17,35,0.00
2019,11,16,17,36,0.00
2019,11,16,17,37,0.00
2019,11,16,17,38,0.00